OpenBCM V1.13 (Linux)

Packet Radio Mailbox

DB0FHN

[JN59NK Nuernberg]

 Login: GUEST





  
LU9DCE > KEP      17.03.19 19:33l 252 Lines 12372 Bytes #999 (0) @ WW
BID : 20202_LU9DCE
Read: DF7EAV DK3UZ GUEST
Subj: TLE 17 03
Path: DB0FHN<DB0BLO<DB0ERF<DB0RES<IR2UBX<IZ3LSV<IW0QNL<JH4XSY<JE7YGF<GB7CIP<
      GB7YEW<LU9DCE
Sent: 190317/1801Z 20202@LU9DCE.TOR.BA.ARG.SOAM LinBPQ6.0.18

            __    _  _  ___  ____   ___  ____    ____  ____  ____
           (  )  / )( \/ _ \(    \ / __)(  __)  (  _ \(  _ \/ ___)
           / (_/\) \/ (\__  )) D (( (__  ) _)    ) _ ( ) _ (\___ \
           \____/\____/(___/(____/ \___)(____)  (____/(____/(____/
               ESTACION DE PACKET RADIO - BUENOS AIRES (GF05OM)
                   BOLETINES INFORMATIVOS PROGRAMADOS (BIP)
                  SOPORTE TECNICO - HELLOCODELINUX@GMAIL.COM

+----------------------------------------------------------------------------+
OSCAR 7
1  7530U 74089B   19076.50820317 -.00000026  00000-0  11879-3 0  9990
2  7530 101.7327  45.1675 0012157 165.3962 307.4304 12.53637249 28849
OSCAR 11 (UoSAT 2)
1 14781U 84021B   19076.12102628  .00000077  00000-0  15602-4 0  9993
2 14781  97.6210 105.2160 0006982 266.3279  93.7137 14.83069554884895
OSCAR 19 (LUSAT)
1 20442U 90005G   19075.89109467 -.00000008 +00000-0 +13378-4 0  9997
2 20442 098.6399 018.0948 0012862 068.0037 292.2512 14.32919463522881
EYESAT A
1 22825U 93061C   19076.51396149  .00000007  00000-0  20550-4 0  9992
2 22825  98.8969  63.0565 0007328 270.8785  89.1556 14.30053418328637
ITAMSAT
1 22826U 93061D   19076.53731985  .00000007  00000-0  20510-4 0  9992
2 22826  98.8910  63.0835 0007866 258.2931 101.7369 14.30386503328833
RADIO ROSTO
1 23439U 94085A   19075.88355288 -.00000013 +00000-0 +83631-3 0  9995
2 23439 064.8139 267.8267 0148407 131.2043 330.0187 11.27568317997312
JAS 2
1 24278U 96046B   19076.45513597  .00000016  00000-0  49208-4 0  9994
2 24278  98.5228 242.5786 0351264 121.7791 241.8072 13.53089739115191
TECHSAT 1B
1 25397U 98043D   19075.86459339 -.00000021 +00000-0 +99218-5 0  9997
2 25397 098.6804 017.1899 0000876 009.3971 350.7224 14.23661777074309
ISS (ZARYA)
1 25544U 98067A   19076.51891712  .00001795  00000-0  35916-4 0  9997
2 25544  51.6419  96.9510 0003931 112.5947  49.3789 15.52817182161012
PCSAT
1 26931U 01043C   19075.88516159 -.00000015  00000-0  26131-4 0  9998
2 26931  67.0497 245.7435 0005407 274.5357  85.5126 14.30535194911558
SAUDISAT 1C
1 27607U 02058C   19075.94893444 -.00000027 +00000-0 +17091-4 0  9996
2 27607 064.5562 336.1996 0082351 274.3821 084.7875 14.75527196873076
CUTE-1
1 27844U 03031E   19076.50337119  .00000057  00000-0  45392-4 0  9993
2 27844  98.6869  86.0986 0008815 304.6111  55.4235 14.22165017815049
CUBESAT XI 4
1 27848U 03031J   19076.53941651  .00000043  00000-0  39424-4 0  9996
2 27848  98.6948  86.6127 0008872 316.9107  43.1375 14.21761893814904
MOZHAYETS 4
1 27939U 03042A   19076.52156399  .00000055  00000-0  18454-4 0  9998
2 27939  98.0222 214.2382 0013005   9.6584 350.4872 14.66760662826883
CUBESAT XI 5
1 28895U 05043F   19075.91924759 +.00000098 +00000-0 +27745-4 0  9998
2 28895 097.9430 221.9467 0015463 288.9435 071.0092 14.63638344713535
CUTE-1.7+APD II
1 32785U 08021C   19076.16449280  .00000188  00000-0  25955-4 0  9990
2 32785  97.5491  80.2972 0012328 207.1976 152.8597 14.88263047589774
DELFI C3
1 32789U 08021G   19076.18492858  .00000946  00000-0  67631-4 0  9994
2 32789  97.4764 128.6268 0013967  87.0563 273.2263 15.06719685592881
SEEDS
1 32791U 08021J   19076.54105218  .00000217  00000-0  27411-4 0  9991
2 32791  97.5303  86.5201 0013304 181.4322 178.6861 14.90753366590235
YUBELEINY
1 32953U 08025A   19076.44408037  .00000020  00000-0  75656-4 0  9995
2 32953  82.5055 202.7362 0018402 335.8051  24.2164 12.43088053490726
PRISM (HITOMI)
1 33493U 09002B   19075.72521850  .00000825  00000-0  77967-4 0  9990
2 33493  98.1233 353.1224 0016264 129.9776 230.2875 14.96543949551091
KKS-1 (KISEKI)
1 33499U 09002H   19076.56128553  .00000107  00000-0  23834-4 0  9999
2 33499  98.3549 272.2639 0010021 137.4723 222.7263 14.75414375545492
SWISSCUBE
1 35932U 09051B   19076.42779174  .00000126  00000-0  39420-4 0  9992
2 35932  98.5760 239.7241 0008808  92.8149 267.4056 14.56253197503207
BEESAT
1 35933U 09051C   19076.02436248  .00000109  00000-0  35526-4 0  9995
2 35933  98.5793 241.0198 0007010 105.0237 255.1736 14.56346204503256
ITUPSAT 1
1 35935U 09051E   19075.89068615 +.00000091 +00000-0 +32131-4 0  9999
2 35935 098.5904 241.1261 0009324 102.6333 257.5907 14.55510457502969
XIWANG-1 (HOPE-1)
1 36122U 09072B   19076.17393782 -.00000050  00000-0 -19541-4 0  9996
2 36122 100.0746  82.9527 0007238 195.6688 164.4209 13.16348532444576
TISAT 1
1 36799U 10035E   19076.47056763  .00000339  00000-0  40321-4 0  9993
2 36799  98.1409 225.6105 0012945  37.5199 322.6919 14.91027137470876
JUGNU
1 37839U 11058B   19076.57660745  .00000325  00000-0  31807-4 0  9991
2 37839  19.9604 179.4345 0019069  20.9133  93.4702 14.12644255384078
SRMSAT
1 37841U 11058D   19075.71187388  .00000306  00000-0  22748-4 0  9999
2 37841  19.9714 239.5115 0011827 244.4995 219.2630 14.10626503383407
M-CUBED/EXP-1 PRIME
1 37855U 11061F   19076.54428385  .00000887  00000-0  52580-4 0  9996
2 37855 101.7273 284.2706 0174319 352.8685   7.0050 15.05197402402767
HORYU 2
1 38340U 12025D   19076.07228645  .00000726  00000-0  11423-3 0  9994
2 38340  98.3391 111.7967 0012013  67.0702 293.1964 14.75681372367356
STRAND 1
1 39090U 13009E   19075.59091254  .00000016  00000-0  20970-4 0  9990
2 39090  98.4978 283.0733 0008644 202.2015 157.8798 14.35073833316897
SOMP
1 39134U 13015E   19075.93437810 +.00001164 +00000-0 +63136-4 0  9992
2 39134 064.8641 324.1355 0021757 317.4091 042.5348 15.19899088325960
BEESAT 3
1 39135U 13015F   19075.95506974 +.00000700 +00000-0 +44827-4 0  9994
2 39135 064.8700 341.0768 0009863 295.1631 064.8471 15.17260904325634
BEESAT 2
1 39136U 13015G   19075.95745220 +.00000826 +00000-0 +51866-4 0  9994
2 39136 064.8715 344.6050 0011377 293.6060 066.3870 15.16704423325566
CUBEBUG 1
1 39153U 13018D   19076.49772321  .00000198  00000-0  32706-4 0  9992
2 39153  97.9745 175.1781 0017994 137.5433 222.7174 14.80525637318031
ZACUBE
1 39417U 13066B   19076.54070492  .00000232  00000-0  35613-4 0  9993
2 39417  97.5686  95.2493 0058388 340.8588  19.0432 14.81069281287250
TRITON 1
1 39427U 13066M   19076.19952601  .00000228  00000-0  43976-4 0  9992
2 39427  97.6675  59.4055 0115334 104.6470 256.7556 14.67791984284628
GOMX 1
1 39430U 13066Q   19076.50404251  .00000158  00000-0  37631-4 0  9997
2 39430  97.7347  39.2592 0150983 187.5756 172.3150 14.59207201283017
HUMSAT D
1 39433U 13066T   19076.13335863  .00000314  00000-0  36038-4 0  9995
2 39433  97.5666 127.4028 0029361 251.6715 108.1310 14.92104774289120
CUBEBUG 2
1 39440U 13066AA  19076.52628691  .00000247  00000-0  41224-4 0  9998
2 39440  97.6015  80.4708 0081050  28.6540 331.9088 14.75806984286231
FUNCUBE 1
1 39444U 13066AE  19076.05218907  .00000248  00000-0  36982-4 0  9991
2 39444  97.5675  96.6383 0057398 336.6948  23.1665 14.81877631286062
UWE-3
1 39446U 13066AG  19076.55455150  .00000245  00000-0  39121-4 0  9996
2 39446  97.5838  87.3952 0070167   5.2969 354.8970 14.78342120285502
SPROUT
1 39770U 14029E   19076.24941415  .00000409  00000-0  51504-4 0  9997
2 39770  97.8799 180.2028 0010198  39.1546 321.0418 14.87210944260945
UNISAT 6
1 40012U 14033C   19075.78964662  .00000138  00000-0  28005-4 0  9999
2 40012  97.7719 306.3663 0059382  41.8060 318.7662 14.73937333254852
DUCHIFAT 1
1 40021U 14033M   19075.76505175 +.00000277 +00000-0 +34155-4 0  9994
2 40021 097.9223 000.0655 0013170 006.5879 353.5509 14.90546219257559
QB50P1
1 40025U 14033R   19075.81578695  .00000212  00000-0  28561-4 0  9994
2 40025  97.9065 355.6534 0012842  14.9556 345.2038 14.88882705257355
CHUBUSAT 1
1 40300U 14070C   19076.29518762  .00000533  00000-0  26285-4 0  9990
2 40300  97.3359 152.8115 0021116  27.2697  18.2145 15.21948969241813
NUDT-PHONESAT
1 40900U 15049B   19076.38980353  .00001900  00000-0  85188-4 0  9998
2 40900  97.4407  86.6565 0014075 145.3282 322.1158 15.22377334193466
ZDPS 2A
1 40901U 15049C   19076.45881843  .00000627  00000-0  34520-4 0  9990
2 40901  97.4620  83.6386 0014084 160.2205 359.1153 15.17549582193097
ZDPS 2B
1 40902U 15049D   19076.52987083  .00000897  00000-0  48269-4 0  9996
2 40902  97.4548  81.3301 0014100 157.2708 322.8111 15.17326276193085
XW-2A
1 40903U 15049E   19076.44584748  .00001900  00000-0  47279-4 0  9995
2 40903  97.3515 118.6371 0015429 118.3719 354.8968 15.41468957195880
KAITUO 1A
1 40904U 15049F   19076.50272069  .00000248  00000-0  16682-4 0  9991
2 40904  97.4667  80.1186 0014928 164.1426 345.7234 15.15268985192886
OBJECT G
1 40905U 15049G   19076.44289045  .00000179  00000-0  13371-4 0  9992
2 40905  97.4692  77.7288 0016276 159.1175 305.0300 15.14203739192768
XW-2C
1 40906U 15049H   19076.51638521  .00000435  00000-0  26366-4 0  9991
2 40906  97.4671  80.1519 0015728 156.0678 324.8887 15.15541559192884
XW-2D
1 40907U 15049J   19076.57032411  .00000385  00000-0  23632-4 0  9991
2 40907  97.4646  79.8832 0014994 153.0005 322.9475 15.15718267192902
LILACSAT 2
1 40908U 15049K   19076.39776574  .00000435  00000-0  27730-4 0  9996
2 40908  97.4779  78.7041 0016625 158.9599 338.7166 15.13723691192698
XW-2F
1 40910U 15049M   19076.28928025  .00000928  00000-0  50147-4 0  9992
2 40910  97.4628  81.4166 0015698 148.1238 333.2098 15.17084175192856
XW-2B
1 40911U 15049N   19076.47359269  .00000832  00000-0  47110-4 0  9992
2 40911  97.4679  80.4136 0014900 153.8587 359.3243 15.15655572192780
KAITUO 1B
1 40912U 15049P   19076.45555821  .00001070  00000-0  53709-4 0  9999
2 40912  97.4516  85.0268 0016313 133.2731 316.0538 15.19369254193153
TIANWANG 1C (TW-1C)
1 40926U 15051B   19076.52001829  .00011288  00000-0  17807-3 0  9999
2 40926  97.1495 122.8824 0008526  12.9573  93.0968 15.53651735195688
